[[{"header":{"parameterUnit":"m.s-1","parameterCategory":2,"la1":30.2991,"la2":30.254,"lo1":-89.0895,"lo2":-89.0444,"dy":0.0017,"dx":0.0017,"nx":28,"ny":28,"refTime":"2024-08-19T09:00:00:Z","depth":"0","parameterNumber":2,"parameterNumberName":"U-component_of_CURRENTS"},"data":[0,0,0,0,0,0,0,0,0,0,0,0,0,0,0,0,0,0,0,0,0,0,0,0,0,0,0,0,0,0,0,0,0,0,0,0,0,0,0,0,0,0,0,0,0,0,0,0,0,0,0,0,0,0,0,0,0,0,0.2112,0.2112,0,0.2073,0.2073,0.2072,0.2053,0.2053,0.2053,0.2053,0.203,0.2029,0.2028,0,0,0,0,0,0,0,0,0,0,0,0,0,0.2151,0.2151,0.2112,0.2112,0.2111,0.2073,0.2072,0.2072,0.2053,0.2053,0.2053,0.2053,0.203,0.2029,0.2028,0,0,0,0,0,0,0,0,0,0,0,0,0,0.2125,0.215,0.2112,0.2098,0.2096,0.2073,0.2072,0.2072,0.2053,0.2053,0.2053,0.2054,0.203,0.2029,0.2028,0.2019,0,0,0.2025,0.2024,0,0,0,0,0,0,0,0,0.2126,0.2123,0.21,0.2099,0.2097,0.2069,0.2077,0.2055,0.2053,0.2069,0.2053,0.2054,0.2045,0.2042,0.2033,0.2018,0.2017,0.2025,0.2024,0.2024,0.2023,0,0,0,0,0,0,0,0.2128,0.2125,0.2096,0.21,0.2098,0.2087,0.2083,0.2073,0.2056,0.2067,0.2066,0.2063,0.2044,0.2035,0.2033,0.2017,0.2025,0.2024,0.2023,0.2023,0.2055,0.2056,0,0,0,0,0,0,0.2135,0.2127,0.2097,0.2095,0.2113,0.2086,0.2082,0.2077,0.2056,0.2053,0.2063,0.2062,0.2036,0.2034,0.2032,0.2061,0.2024,0.2023,0.2022,0.2053,0.2055,0.2056,0,0,0,0,0,0,0.2136,0.2133,0.2099,0.2111,0.2106,0.2086,0.208,0.2076,0.2071,0.2052,0.205,0.2062,0.2036,0.2033,0.2036,0.2058,0.2022,0.2021,0.2051,0.2054,0.2056,0.2092,0,0,0,0,0,0,0.2137,0.2133,0.2132,0.2111,0.2105,0.2091,0.208,0.2075,0.2069,0.2068,0.2051,0.2048,0.2036,0.2038,0.2035,0.2056,0.202,0.2049,0.2052,0.2055,0.2089,0.2095,0.2101,0,0,0,0,0,0.2139,0.2129,0.2132,0.2128,0.2103,0.2092,0.2088,0.2073,0.2069,0.2069,0.2064,0.2049,0.2054,0.2038,0.2034,0.2055,0.2048,0.2052,0.2055,0.2086,0.2094,0.21,0,0,0,0,0,0,0.2137,0.2125,0.2128,0.2114,0.211,0.2089,0.2082,0.2077,0.2071,0.2071,0.2056,0.2054,0.2071,0.2059,0.2041,0.2077,0.2053,0.2056,0.2079,0.2086,0.2091,0.21,0.202,0,0,0,0,0,0.214,0.2133,0.2125,0.2115,0.2115,0.2103,0.2096,0.209,0.2082,0.2078,0.207,0.207,0.2081,0.2079,0.2082,0.2088,0.2095,0.2106,0.2111,0.2116,0.2124,0.2165,0.2175,0.2067,0.2067,0.2067,0,0,0.2135,0.2129,0.2124,0.2115,0.2109,0.2109,0.2098,0.2091,0.2097,0.2077,0.2083,0.2088,0.2089,0.2106,0.2113,0.2097,0.2149,0.2121,0.2124,0.2129,0.217,0.218,0.2189,0.207,0.2069,0.2069,0,0,0.2123,0.2121,0.2114,0.2116,0.2113,0.2111,0.2114,0.2104,0.2109,0.2114,0.2116,0.214,0.2131,0.2151,0.2156,0.2197,0.2183,0.2195,0.2223,0.2263,0.2272,0.228,0.2292,0.2301,0.2193,0.2193,0.2193,0,0.2121,0.211,0.2111,0.211,0.211,0.2116,0.2115,0.2123,0.2118,0.213,0.2122,0.2157,0.2159,0.2199,0.2217,0.2211,0.2216,0.2192,0.227,0.2278,0.2286,0.2296,0.2306,0.2195,0.2195,0.2194,0.2194,0,0.2105,0.2103,0.2099,0.2105,0.211,0.2107,0.2124,0.2138,0.2146,0.2156,0.2197,0.2212,0.2234,0.2246,0.224,0.23,0.228,0.2275,0.2249,0.2299,0.2307,0.2316,0.2198,0.2197,0.2197,0.2196,0,0,0.2079,0.2087,0.2085,0.2092,0.2106,0.2107,0.2134,0.2157,0.2183,0.2202,0.2238,0.2276,0.2292,0.2303,0.2313,0.2348,0.2408,0.2332,0.2333,0.2338,0.2474,0.2289,0.2281,0.2411,0.2413,0.2414,0.2454,0,0.2066,0.2061,0.2071,0.2078,0.2079,0.2106,0.2132,0.2162,0.2192,0.2234,0.2278,0.2316,0.2312,0.2332,0.2371,0.2401,0.2434,0.2396,0.2431,0.2432,0.2256,0.2286,0.2196,0.2208,0.2463,0.2464,0.2465,0,0.204,0.2044,0.2043,0.207,0.2075,0.2087,0.2135,0.216,0.223,0.2259,0.2313,0.2344,0.241,0.2402,0.2478,0.2448,0.2468,0.2487,0.2489,0.231,0.2263,0.2203,0.2215,0.221,0.2479,0.2478,0.2477,0,0.2007,0.2021,0.202,0.2027,0.2063,0.2078,0.2103,0.2163,0.2195,0.2281,0.2316,0.2391,0.2428,0.248,0.25,0.2501,0.2566,0.2575,0.243,0.2417,0.2343,0.2317,0.2348,0.264,0.264,0.264,0.264,0,0.1978,0.1977,0.2007,0.2006,0.2025,0.2058,0.2093,0.2137,0.2207,0.2248,0.2326,0.2372,0.2451,0.2486,0.2516,0.2471,0.2578,0.2435,0.2416,0.2348,0.2324,0.2314,0.2313,0.2641,0.2641,0.2641,0.264,0,0.1934,0.195,0.1957,0.1994,0.2006,0.2021,0.2074,0.2106,0.2176,0.2235,0.2265,0.2363,0.2391,0.2429,0.2501,0.2457,0.2379,0.2425,0.231,0.2273,0.208,0.2082,0.1906,0.1876,0.2273,0.2268,0.2265,0,0.1907,0.1903,0.194,0.1952,0.1966,0.1995,0.2018,0.2084,0.2119,0.2221,0.2247,0.2296,0.2309,0.2307,0.2257,0.2231,0.223,0.2111,0.2088,0.2043,0.2038,0.1926,0.1911,0.2028,0.2022,0.2018,0.2014,0,0.1867,0.1881,0.1897,0.1917,0.1938,0.1961,0.1995,0.201,0.2088,0.2126,0.2166,0.2183,0.2157,0.207,0.1994,0.1978,0.1983,0.2011,0.2039,0.1886,0.1702,0.1672,0.2018,0.1976,0.1979,0.1982,0.1984,0.1986,0.1846,0.1852,0.1875,0.1886,0.1903,0.191,0.1896,0.1926,0.1945,0.1944,0.2029,0.1982,0.1946,0.1812,0.1777,0.1653,0.1665,0.1624,0.1647,0.155,0.1452,0.1655,0.1527,0.1528,0.1529,0.153,0.1531,0,0.1819,0.183,0.1842,0.185,0.1824,0.1858,0.1865,0.182,0.178,0.1786,0.1766,0.1689,0.1594,0.1563,0.1446,0.1359,0.1318,0.1328,0.1261,0.1284,0.156,0.1483,0.1248,0.1248,0.1248,0.1248,0.1248,0.1248,0.1816,0.1814,0.1813,0.1764,0.1753,0.1691,0.1667,0.1603,0.1574,0.1459,0.1386,0.1376,0.1407,0.1324,0.124,0.1214,0.1186,0.1009,0.1079,0.1403,0.1436,0.1469,0.14,0.1151,0.1151,0.0758,0.0756,0.0754]},{"header":{"parameterUnit":"m.s-1","parameterCategory":2,"la1":30.2991,"la2":30.254,"lo1":-89.0895,"lo2":-89.0444,"dy":0.0017,"dx":0.0017,"nx":28,"ny":28,"refTime":"2024-08-19T09:00:00:Z","depth":"0","parameterNumber":3,"parameterNumberName":"V-component_of_CURRENTS"},"data":[0,0,0,0,0,0,0,0,0,0,0,0,0,0,0,0,0,0,0,0,0,0,0,0,0,0,0,0,0,0,0,0,0,0,0,0,0,0,0,0,0,0,0,0,0,0,0,0,0,0,0,0,0,0,0,0,0,0,0.0177,0.0177,0,0.0201,0.0201,0.0202,0.0203,0.0203,0.0203,0.0203,0.0194,0.0194,0.0194,0,0,0,0,0,0,0,0,0,0,0,0,0,0.014,0.014,0.0177,0.0177,0.0178,0.0201,0.0201,0.0202,0.0204,0.0203,0.0203,0.0203,0.0194,0.0194,0.0194,0,0,0,0,0,0,0,0,0,0,0,0,0,0.0159,0.014,0.0177,0.0181,0.0182,0.0201,0.0201,0.0202,0.0204,0.0203,0.0203,0.0202,0.0194,0.0194,0.0194,0.0202,0,0,0.0194,0.0194,0,0,0,0,0,0,0,0,0.0158,0.016,0.018,0.0181,0.0182,0.0199,0.0185,0.02,0.0204,0.0195,0.0203,0.0202,0.0193,0.0193,0.0199,0.0202,0.0201,0.0194,0.0194,0.0194,0.0194,0,0,0,0,0,0,0,0.0156,0.0159,0.0186,0.0181,0.0182,0.0185,0.0187,0.0188,0.0195,0.0196,0.0196,0.0199,0.0193,0.0199,0.0199,0.0201,0.0194,0.0194,0.0194,0.0194,0.0208,0.0208,0,0,0,0,0,0,0.0154,0.0158,0.0186,0.0187,0.0169,0.0186,0.0188,0.0194,0.0196,0.0196,0.0199,0.0199,0.0199,0.0199,0.0198,0.0215,0.0194,0.0194,0.0194,0.0208,0.0208,0.0209,0,0,0,0,0,0,0.0153,0.0156,0.0185,0.0173,0.0177,0.0187,0.0193,0.0194,0.02,0.0199,0.0199,0.0204,0.0199,0.0198,0.0203,0.0214,0.0194,0.0194,0.0207,0.0208,0.0208,0.0244,0,0,0,0,0,0,0.0152,0.0156,0.016,0.0173,0.0177,0.0198,0.0193,0.0195,0.0203,0.0202,0.0202,0.0201,0.0198,0.0203,0.0203,0.0214,0.0194,0.0207,0.0208,0.0208,0.0242,0.0245,0.0248,0,0,0,0,0,0.015,0.0159,0.016,0.0163,0.0182,0.0199,0.0201,0.0207,0.0203,0.0209,0.021,0.0201,0.0207,0.0204,0.0204,0.0215,0.0206,0.0207,0.0208,0.0241,0.0245,0.0248,0,0,0,0,0,0,0.0141,0.016,0.0161,0.0174,0.0185,0.0199,0.0207,0.0208,0.0215,0.0212,0.0208,0.0208,0.0216,0.0209,0.0205,0.0219,0.0205,0.0205,0.0229,0.0233,0.0236,0.0253,0.0194,0,0,0,0,0,0.0142,0.0156,0.0169,0.018,0.0186,0.0196,0.0203,0.0206,0.0213,0.0216,0.0218,0.0217,0.0221,0.0221,0.0223,0.0231,0.0235,0.0237,0.024,0.0242,0.0255,0.0274,0.028,0.0211,0.0211,0.0211,0,0,0.014,0.0153,0.016,0.0179,0.0189,0.0207,0.0199,0.0212,0.0227,0.0214,0.0233,0.0229,0.0225,0.0237,0.024,0.0232,0.0262,0.0244,0.0246,0.0258,0.0275,0.0282,0.0288,0.0212,0.0212,0.0212,0,0,0.0151,0.0157,0.0175,0.0188,0.0205,0.0214,0.0217,0.0233,0.0238,0.0253,0.0249,0.0255,0.0257,0.0264,0.0264,0.0285,0.0278,0.0277,0.0308,0.0325,0.0332,0.0337,0.0345,0.0351,0.0279,0.0279,0.0279,0,0.0147,0.0175,0.0181,0.0204,0.0219,0.0218,0.0241,0.0249,0.0264,0.0276,0.0262,0.0283,0.0274,0.0299,0.0303,0.0294,0.0298,0.0295,0.0331,0.0336,0.0342,0.0348,0.0354,0.028,0.028,0.028,0.028,0,0.0176,0.0197,0.0209,0.024,0.0255,0.0274,0.0287,0.0299,0.0301,0.0312,0.0334,0.0328,0.0344,0.0336,0.0325,0.0357,0.0346,0.0334,0.0324,0.0351,0.0356,0.0362,0.0283,0.0282,0.0282,0.0281,0,0,0.0171,0.022,0.0225,0.0251,0.0277,0.0296,0.0319,0.0347,0.0373,0.0374,0.0414,0.0408,0.0408,0.0409,0.0397,0.0406,0.0436,0.0386,0.0386,0.0399,0.0472,0.044,0.0442,0.0431,0.0432,0.0433,0.0459,0,0.0193,0.0245,0.0262,0.031,0.0339,0.035,0.0377,0.0399,0.0414,0.0449,0.0445,0.0474,0.0434,0.0447,0.0451,0.0447,0.0454,0.043,0.044,0.044,0.0413,0.0449,0.0463,0.0485,0.0464,0.0465,0.0466,0,0.022,0.0254,0.0306,0.036,0.0373,0.0398,0.0447,0.0472,0.051,0.0523,0.0545,0.0548,0.0569,0.053,0.0538,0.0524,0.0504,0.0491,0.0491,0.0457,0.0419,0.0456,0.0497,0.0499,0.0475,0.0474,0.0473,0,0.023,0.0286,0.0331,0.0349,0.0405,0.0429,0.0456,0.0496,0.0534,0.0579,0.0616,0.0627,0.0654,0.0631,0.0594,0.0574,0.0598,0.0568,0.052,0.0517,0.0529,0.0525,0.058,0.0579,0.0578,0.0578,0.0578,0,0.0256,0.0293,0.034,0.0368,0.0423,0.0451,0.0512,0.0538,0.0597,0.0664,0.0661,0.0716,0.0682,0.0687,0.0634,0.0598,0.063,0.054,0.0529,0.0539,0.0536,0.0536,0.0527,0.0579,0.0579,0.0579,0.0579,0,0.027,0.03,0.0356,0.0414,0.0434,0.0475,0.055,0.0602,0.0644,0.0736,0.076,0.0801,0.0805,0.0753,0.0727,0.0661,0.0625,0.0595,0.0601,0.059,0.053,0.0521,0.0561,0.0591,0.0554,0.0554,0.0553,0,0.0287,0.0316,0.0385,0.0424,0.0454,0.0514,0.0566,0.0621,0.0685,0.0793,0.085,0.0882,0.0913,0.0849,0.0743,0.0652,0.0636,0.0594,0.0555,0.0545,0.0527,0.0525,0.0549,0.0586,0.0586,0.0585,0.0585,0,0.0317,0.0337,0.0385,0.046,0.0518,0.0588,0.0666,0.0723,0.081,0.0888,0.0994,0.1026,0.0969,0.0896,0.0755,0.068,0.0614,0.0587,0.0592,0.0574,0.0564,0.0581,0.0541,0.0584,0.0584,0.0585,0.0585,0.0585,0.0338,0.0371,0.0431,0.0503,0.0574,0.0664,0.0728,0.0822,0.0929,0.1053,0.108,0.1138,0.1042,0.0854,0.0751,0.0602,0.0608,0.0558,0.0553,0.0556,0.0575,0.0519,0.0533,0.0533,0.0533,0.0533,0.0533,0,0.0363,0.0405,0.0473,0.0564,0.0645,0.0677,0.0802,0.0878,0.1009,0.1109,0.1185,0.1193,0.1051,0.0907,0.0705,0.0604,0.0586,0.0557,0.0581,0.0611,0.0582,0.0572,0.0576,0.0576,0.0576,0.0576,0.0576,0.0576,0.038,0.0441,0.0476,0.0605,0.0674,0.0786,0.0859,0.0976,0.1073,0.1206,0.1266,0.1303,0.1266,0.0883,0.0688,0.0631,0.0633,0.0575,0.0596,0.0581,0.0582,0.0582,0.0572,0.0577,0.0577,0.0657,0.0657,0.0657]}],[{"header":{"parameterUnit":"m.s-1","parameterCategory":2,"la1":30.2991,"la2":30.254,"lo1":-89.0895,"lo2":-89.0444,"dy":0.0017,"dx":0.0017,"nx":28,"ny":28,"refTime":"2024-08-19T09:00:00:Z","depth":"2","parameterNumber":2,"parameterNumberName":"U-component_of_CURRENTS"},"data":[0,0,0,0,0,0,0,0,0,0,0,0,0,0,0,0,0,0,0,0,0,0,0,0,0,0,0,0,0,0,0,0,0,0,0,0,0,0,0,0,0,0,0,0,0,0,0,0,0,0,0,0,0,0,0,0,0,0,0.1546,0.1546,0,0.1553,0.1553,0.1553,0.1583,0.1583,0.1584,0.1584,0.1584,0.1584,0.1583,0,0,0,0,0,0,0,0,0,0,0,0,0,0.1546,0.1546,0.1546,0.1546,0.1546,0.1553,0.1553,0.1553,0.1583,0.1583,0.1584,0.1585,0.1585,0.1584,0.1583,0,0,0,0,0,0,0,0,0,0,0,0,0,0.1551,0.1546,0.1546,0.156,0.1561,0.1553,0.1553,0.1553,0.1583,0.1583,0.1584,0.1585,0.1585,0.1584,0.1583,0.1563,0,0,0.1581,0.1581,0,0,0,0,0,0,0,0,0.155,0.1551,0.1558,0.1559,0.156,0.1566,0.1553,0.1556,0.1582,0.1576,0.1584,0.1585,0.1576,0.1576,0.1578,0.1563,0.1563,0.1581,0.1581,0.158,0.158,0,0,0,0,0,0,0,0.155,0.1551,0.155,0.1558,0.1559,0.1562,0.1563,0.1554,0.1573,0.1577,0.1579,0.1576,0.1577,0.1579,0.1578,0.1563,0.1581,0.158,0.158,0.158,0.1631,0.1633,0,0,0,0,0,0,0.1545,0.155,0.155,0.155,0.1555,0.1561,0.1563,0.1565,0.1573,0.1575,0.1576,0.1578,0.158,0.1579,0.1578,0.1617,0.158,0.158,0.1579,0.163,0.1632,0.1634,0,0,0,0,0,0,0.1545,0.1545,0.155,0.1549,0.1549,0.156,0.1562,0.1565,0.1583,0.1572,0.1574,0.1593,0.158,0.1579,0.1589,0.1615,0.1579,0.1579,0.1627,0.163,0.1633,0.1654,0,0,0,0,0,0,0.1545,0.1545,0.1554,0.1549,0.1549,0.1555,0.1561,0.1564,0.1579,0.1582,0.1587,0.1587,0.1581,0.1591,0.1589,0.1613,0.1578,0.1625,0.1629,0.1632,0.1651,0.1657,0.1662,0,0,0,0,0,0.1545,0.155,0.1554,0.1555,0.1558,0.1555,0.1557,0.1568,0.1579,0.1588,0.1597,0.1588,0.1612,0.1591,0.1588,0.1613,0.1624,0.1628,0.1632,0.1648,0.1656,0.1662,0,0,0,0,0,0,0.1558,0.1553,0.1558,0.1563,0.1564,0.156,0.1571,0.1575,0.159,0.1598,0.1593,0.1594,0.1626,0.1615,0.1591,0.1644,0.1623,0.1627,0.1637,0.1644,0.1649,0.1672,0.1577,0,0,0,0,0,0.1563,0.1562,0.1561,0.1564,0.1571,0.1575,0.1579,0.1583,0.1588,0.1597,0.1604,0.1618,0.1637,0.1635,0.1653,0.1656,0.1669,0.168,0.1685,0.169,0.171,0.1755,0.1766,0.1647,0.1647,0.1647,0,0,0.1565,0.1563,0.1562,0.1566,0.1573,0.158,0.1581,0.159,0.1598,0.1592,0.162,0.1641,0.1649,0.1673,0.1685,0.1663,0.1728,0.1695,0.1698,0.1717,0.1761,0.1772,0.1782,0.165,0.1649,0.1649,0,0,0.1565,0.1575,0.1578,0.1585,0.1592,0.1591,0.1597,0.1608,0.1623,0.1636,0.1656,0.1686,0.1697,0.1714,0.1721,0.1764,0.1769,0.1782,0.1807,0.185,0.186,0.1869,0.1881,0.189,0.1768,0.1768,0.1768,0,0.1569,0.1571,0.1578,0.159,0.1592,0.1599,0.1604,0.1618,0.1631,0.1652,0.1651,0.1721,0.1717,0.1761,0.1785,0.1775,0.18,0.1772,0.1856,0.1865,0.1874,0.1884,0.1895,0.1769,0.1769,0.1769,0.1769,0,0.1573,0.1581,0.1587,0.1598,0.1605,0.1608,0.1624,0.1652,0.1668,0.1681,0.1744,0.1757,0.1797,0.1808,0.1804,0.1877,0.1874,0.1867,0.1833,0.1887,0.1894,0.1905,0.1772,0.1771,0.1771,0.177,0,0,0.1565,0.1581,0.1587,0.1598,0.1608,0.1617,0.1643,0.1669,0.1704,0.1738,0.1784,0.1829,0.1859,0.1872,0.1886,0.1922,0.1986,0.1928,0.1929,0.1929,0.2078,0.1909,0.1904,0.2005,0.2007,0.2009,0.205,0,0.1563,0.1575,0.1583,0.1601,0.1609,0.1634,0.1656,0.1689,0.1719,0.1772,0.1814,0.1864,0.1873,0.1902,0.1945,0.1987,0.2021,0.1976,0.2036,0.2038,0.1872,0.1913,0.1771,0.1782,0.206,0.2062,0.2063,0,0.1567,0.1571,0.1581,0.1607,0.1617,0.1635,0.1688,0.1711,0.1781,0.1811,0.1877,0.1911,0.1981,0.1976,0.2074,0.2053,0.208,0.2103,0.2104,0.1952,0.1889,0.1779,0.1791,0.2081,0.208,0.2078,0.2077,0,0.1556,0.1576,0.158,0.1589,0.1619,0.1649,0.1675,0.1733,0.1765,0.185,0.1889,0.1968,0.2012,0.2078,0.2109,0.2113,0.2204,0.2197,0.2071,0.2058,0.195,0.1921,0.2278,0.2278,0.2278,0.2278,0.2278,0,0.1551,0.1556,0.1586,0.1596,0.162,0.1654,0.1699,0.1744,0.1809,0.185,0.1919,0.1961,0.2051,0.2098,0.2132,0.2114,0.2214,0.2088,0.2064,0.1947,0.192,0.2194,0.2184,0.2279,0.2279,0.2279,0.2278,0,0.1538,0.1548,0.1553,0.1593,0.1615,0.1637,0.1701,0.1736,0.1809,0.187,0.19,0.1978,0.2017,0.2067,0.2146,0.2112,0.2125,0.2096,0.1927,0.1881,0.195,0.1941,0.1968,0.1962,0.1958,0.1954,0.195,0,0.1521,0.153,0.1556,0.1564,0.1584,0.1629,0.1658,0.1727,0.1759,0.1866,0.1886,0.1945,0.1945,0.1962,0.1926,0.1914,0.2012,0.1757,0.172,0.1948,0.1923,0.1921,0.1918,0.1596,0.159,0.1585,0.1581,0,0.1496,0.1508,0.1523,0.154,0.1565,0.1595,0.1646,0.1663,0.1745,0.1779,0.1811,0.182,0.1813,0.1701,0.1656,0.1636,0.1737,0.165,0.1974,0.1662,0.1591,0.1568,0.1579,0.1538,0.1542,0.1546,0.1548,0.155,0.1476,0.1473,0.1499,0.1513,0.1535,0.1554,0.1546,0.1591,0.1608,0.162,0.1678,0.162,0.1606,0.1428,0.1369,0.1311,0.1436,0.1385,0.1405,0.1428,0.1343,0.1264,0.1135,0.1137,0.1138,0.114,0.1141,0,0.1457,0.1462,0.1472,0.1472,0.1465,0.1509,0.1525,0.1481,0.1446,0.1465,0.1444,0.1274,0.1171,0.1162,0.1007,0.0963,0.1009,0.0916,0.0996,0.1037,0.1074,0.0976,0.0668,0.0667,0.0666,0.0664,0,0,0.1444,0.1434,0.1434,0.1402,0.1409,0.1371,0.1354,0.1288,0.126,0.1166,0.1103,0.114,0.1141,0.0918,0.0861,0.0749,0.0899,0.0706,0.1085,0.1224,0.126,0.1336,0.1227,0,0,0,0,0]},{"header":{"parameterUnit":"m.s-1","parameterCategory":2,"la1":30.2991,"la2":30.254,"lo1":-89.0895,"lo2":-89.0444,"dy":0.0017,"dx":0.0017,"nx":28,"ny":28,"refTime":"2024-08-19T09:00:00:Z","depth":"2","parameterNumber":3,"parameterNumberName":"V-component_of_CURRENTS"},"data":[0,0,0,0,0,0,0,0,0,0,0,0,0,0,0,0,0,0,0,0,0,0,0,0,0,0,0,0,0,0,0,0,0,0,0,0,0,0,0,0,0,0,0,0,0,0,0,0,0,0,0,0,0,0,0,0,0,0,0.0072,0.0072,0,0.0097,0.0098,0.0098,0.0104,0.0104,0.0104,0.0104,0.0096,0.0096,0.0096,0,0,0,0,0,0,0,0,0,0,0,0,0,0.0035,0.0036,0.0072,0.0072,0.0073,0.0097,0.0098,0.0098,0.0104,0.0104,0.0104,0.0104,0.0096,0.0096,0.0096,0,0,0,0,0,0,0,0,0,0,0,0,0,0.0055,0.0036,0.0072,0.0079,0.008,0.0097,0.0098,0.0098,0.0104,0.0104,0.0104,0.0104,0.0096,0.0096,0.0096,0.0101,0,0,0.0095,0.0095,0,0,0,0,0,0,0,0,0.0054,0.0057,0.0077,0.0078,0.0079,0.0097,0.0082,0.0097,0.0104,0.0095,0.0104,0.0103,0.0093,0.0093,0.0099,0.01,0.01,0.0095,0.0095,0.0095,0.0095,0,0,0,0,0,0,0,0.0053,0.0056,0.0082,0.0078,0.0079,0.0082,0.0085,0.0085,0.0095,0.0096,0.0096,0.0099,0.0093,0.01,0.0099,0.01,0.0095,0.0095,0.0095,0.0095,0.0107,0.0107,0,0,0,0,0,0,0.0049,0.0054,0.0082,0.0083,0.0065,0.0083,0.0086,0.0092,0.0096,0.0096,0.0099,0.0099,0.01,0.0099,0.0099,0.0115,0.0095,0.0095,0.0095,0.0106,0.0107,0.0107,0,0,0,0,0,0,0.0048,0.0052,0.0081,0.0069,0.0073,0.0084,0.0091,0.0093,0.01,0.0098,0.0098,0.0104,0.01,0.0099,0.0103,0.0115,0.0095,0.0095,0.0106,0.0106,0.0107,0.0142,0,0,0,0,0,0,0.0047,0.0051,0.0056,0.0069,0.0073,0.0095,0.0091,0.0093,0.0101,0.0102,0.0103,0.0102,0.0099,0.0103,0.0103,0.0114,0.0095,0.0105,0.0106,0.0107,0.014,0.0143,0.0146,0,0,0,0,0,0.0046,0.0057,0.0057,0.006,0.0079,0.0095,0.0098,0.0105,0.0102,0.011,0.0109,0.0102,0.0107,0.0104,0.0103,0.0115,0.0105,0.0106,0.0107,0.0139,0.0143,0.0146,0,0,0,0,0,0,0.0041,0.0059,0.0059,0.0073,0.0084,0.0097,0.0106,0.0107,0.0114,0.0112,0.0108,0.0107,0.0116,0.0108,0.0105,0.0119,0.0104,0.0105,0.0129,0.0132,0.0135,0.0152,0.0095,0,0,0,0,0,0.0043,0.0057,0.0069,0.008,0.0087,0.0095,0.0103,0.0106,0.0112,0.0116,0.0118,0.0117,0.012,0.012,0.0122,0.0129,0.0131,0.0135,0.0138,0.014,0.0153,0.0167,0.0173,0.011,0.011,0.011,0,0,0.0043,0.0055,0.0062,0.008,0.009,0.0108,0.01,0.0113,0.0126,0.0113,0.0132,0.0129,0.0124,0.0136,0.0138,0.013,0.0158,0.0141,0.0144,0.0155,0.0169,0.0175,0.018,0.011,0.011,0.011,0,0,0.0056,0.0063,0.0081,0.0094,0.0109,0.0116,0.012,0.0134,0.0139,0.0152,0.0148,0.0153,0.0155,0.0161,0.0161,0.018,0.0175,0.0176,0.0204,0.0217,0.0223,0.0228,0.0234,0.0239,0.0175,0.0175,0.0175,0,0.0056,0.0082,0.0088,0.011,0.0125,0.0121,0.0144,0.015,0.0163,0.0174,0.0161,0.018,0.017,0.0193,0.0198,0.0188,0.0193,0.0191,0.0223,0.0227,0.0232,0.0237,0.0243,0.0177,0.0177,0.0177,0.0176,0,0.0085,0.0106,0.0119,0.0147,0.0162,0.018,0.019,0.0201,0.0202,0.021,0.0231,0.0223,0.0237,0.0229,0.0219,0.0248,0.024,0.0227,0.0216,0.0241,0.0244,0.0249,0.018,0.0179,0.0178,0.0178,0,0,0.0087,0.0131,0.0136,0.016,0.0184,0.0202,0.0222,0.0247,0.027,0.027,0.0304,0.0299,0.0298,0.0298,0.0287,0.0293,0.0319,0.0276,0.0276,0.0287,0.0349,0.0318,0.0321,0.0314,0.0315,0.0316,0.0337,0,0.0109,0.0159,0.0174,0.022,0.0248,0.0256,0.0281,0.03,0.031,0.034,0.0332,0.0357,0.0323,0.0334,0.0335,0.033,0.0336,0.0315,0.032,0.032,0.0294,0.0327,0.0315,0.033,0.0342,0.0343,0.0343,0,0.0137,0.0169,0.0219,0.0269,0.0282,0.0306,0.0351,0.0374,0.0404,0.0413,0.043,0.0429,0.0445,0.0408,0.0413,0.0403,0.0383,0.0369,0.0369,0.0335,0.0299,0.0308,0.0339,0.0352,0.0351,0.035,0.035,0,0.015,0.0203,0.0245,0.0263,0.0314,0.0338,0.0364,0.0398,0.0434,0.0468,0.0501,0.0504,0.0526,0.0501,0.0464,0.0447,0.0464,0.0435,0.0389,0.0386,0.0374,0.0368,0.0443,0.0443,0.0443,0.0443,0.0443,0,0.0177,0.0213,0.0256,0.0284,0.0337,0.0364,0.0423,0.0446,0.0496,0.0558,0.0547,0.0591,0.0553,0.0552,0.05,0.0464,0.0492,0.0408,0.0396,0.0384,0.0379,0.0394,0.0388,0.0443,0.0443,0.0443,0.0443,0,0.0193,0.022,0.0273,0.0328,0.0348,0.0388,0.0463,0.0511,0.055,0.0633,0.0653,0.0675,0.0671,0.0617,0.0585,0.0522,0.0478,0.0455,0.0438,0.0423,0.0381,0.0377,0.0414,0.0413,0.0412,0.0412,0.0411,0,0.0208,0.0237,0.0302,0.034,0.0369,0.043,0.0481,0.0532,0.0593,0.0687,0.0736,0.0755,0.0767,0.0694,0.0593,0.0501,0.0485,0.0424,0.0384,0.0397,0.0382,0.0378,0.0375,0.0382,0.0382,0.0381,0.0381,0,0.0235,0.0255,0.0301,0.0375,0.0432,0.0502,0.0579,0.0634,0.0715,0.0781,0.0865,0.0879,0.0811,0.0711,0.0575,0.0503,0.0433,0.0409,0.0451,0.0383,0.0367,0.0352,0.035,0.0376,0.0377,0.0377,0.0377,0.0377,0.0253,0.0283,0.0343,0.0417,0.0487,0.0578,0.064,0.0729,0.0825,0.0928,0.0937,0.0948,0.0837,0.0651,0.0526,0.0394,0.0413,0.0351,0.0353,0.0356,0.034,0.0323,0.0321,0.0321,0.0321,0.0321,0.0321,0,0.0278,0.0318,0.0385,0.0475,0.0557,0.0592,0.0713,0.0778,0.0894,0.0962,0.1012,0.0886,0.0769,0.0635,0.0439,0.0323,0.0311,0.0272,0.0285,0.0291,0.0296,0.0277,0.0241,0.024,0.024,0.0239,0,0,0.0292,0.0353,0.0388,0.0518,0.0589,0.0699,0.0769,0.0864,0.0933,0.0988,0.0985,0.0967,0.0811,0.0646,0.0486,0.0368,0.0354,0.0336,0.0413,0.0453,0.046,0.0354,0.0332,0,0,0,0,0]}],[{"header":{"parameterUnit":"m.s-1","parameterCategory":2,"la1":30.2991,"la2":30.254,"lo1":-89.0895,"lo2":-89.0444,"dy":0.0017,"dx":0.0017,"nx":28,"ny":28,"refTime":"2024-08-19T09:00:00:Z","depth":"4","parameterNumber":2,"parameterNumberName":"U-component_of_CURRENTS"},"data":[0,0,0,0,0,0,0,0,0,0,0,0,0,0,0,0,0,0,0,0,0,0,0,0,0,0,0,0,0,0,0,0,0,0,0,0,0,0,0,0,0,0,0,0,0,0,0,0,0,0,0,0,0,0,0,0,0,0,0.0573,0.0573,0,0.0617,0.0617,0.0618,0.065,0.065,0.0651,0.0651,0.0706,0.0707,0.0708,0,0,0,0,0,0,0,0,0,0,0,0,0,0.054,0.054,0.0573,0.0573,0.0574,0.0617,0.0617,0.0618,0.065,0.065,0.0651,0.0651,0.0706,0.0707,0.0709,0,0,0,0,0,0,0,0,0,0,0,0,0,0.0565,0.054,0.0572,0.0596,0.0599,0.0617,0.0617,0.0618,0.065,0.065,0.0651,0.0651,0.0705,0.0707,0.0709,0.0707,0,0,0.0714,0.0714,0,0,0,0,0,0,0,0,0.0563,0.0565,0.0592,0.0595,0.0598,0.063,0.0626,0.0649,0.065,0.0629,0.0651,0.0652,0.0682,0.0686,0.0691,0.0709,0.0712,0.0714,0.0715,0.0716,0.0716,0,0,0,0,0,0,0,0.0561,0.0564,0.0589,0.0593,0.0596,0.0613,0.0617,0.0631,0.0651,0.0631,0.0633,0.0641,0.0684,0.0689,0.0692,0.0713,0.0714,0.0715,0.0716,0.0717,0.0802,0.0804,0,0,0,0,0,0,0.0557,0.0562,0.0587,0.059,0.0583,0.0613,0.0617,0.0618,0.065,0.0656,0.064,0.0642,0.0686,0.069,0.0694,0.0745,0.0716,0.0717,0.0718,0.0801,0.0803,0.0804,0,0,0,0,0,0,0.0556,0.0558,0.0586,0.0579,0.0584,0.0613,0.0613,0.0618,0.0648,0.0658,0.0664,0.0668,0.0686,0.0692,0.0723,0.0746,0.0718,0.0719,0.08,0.0802,0.0803,0.0814,0,0,0,0,0,0,0.0554,0.0557,0.0564,0.0578,0.0584,0.0609,0.0613,0.0619,0.0651,0.0654,0.0683,0.0687,0.0687,0.0721,0.0725,0.0747,0.0721,0.0798,0.08,0.0803,0.0812,0.0816,0.082,0,0,0,0,0,0.0553,0.0556,0.0563,0.0567,0.0589,0.061,0.0615,0.0636,0.0652,0.0666,0.0686,0.0688,0.0739,0.0723,0.0727,0.0751,0.0797,0.08,0.0803,0.081,0.0815,0.082,0,0,0,0,0,0,0.0553,0.056,0.0568,0.0576,0.0599,0.0616,0.0633,0.0651,0.0678,0.0687,0.0698,0.0703,0.0739,0.0747,0.0729,0.0785,0.0771,0.0775,0.0776,0.0781,0.0784,0.0787,0.0722,0,0,0,0,0,0.0553,0.0559,0.0572,0.0586,0.0594,0.0619,0.0635,0.0652,0.0673,0.0687,0.0707,0.0731,0.075,0.0768,0.0782,0.0812,0.082,0.0834,0.0838,0.0841,0.0848,0.0887,0.0894,0.0814,0.0814,0.0813,0,0,0.0557,0.0566,0.0569,0.0587,0.0606,0.0619,0.0631,0.066,0.068,0.0688,0.0726,0.0743,0.0761,0.079,0.0808,0.0803,0.0865,0.0844,0.0847,0.0853,0.089,0.0898,0.0905,0.0815,0.0815,0.0815,0,0,0.0568,0.0577,0.0582,0.0597,0.0626,0.0638,0.0653,0.068,0.0701,0.0734,0.0746,0.0777,0.0811,0.0825,0.0836,0.0874,0.088,0.0888,0.0912,0.0949,0.0956,0.0962,0.0963,0.097,0.0893,0.0893,0.0893,0,0.0575,0.0582,0.0591,0.0602,0.0619,0.0649,0.0664,0.0685,0.0723,0.0743,0.0751,0.081,0.0825,0.086,0.0876,0.0881,0.0896,0.0889,0.0953,0.0959,0.0965,0.0966,0.0972,0.0894,0.0894,0.0894,0.0894,0,0.0579,0.0595,0.0604,0.0621,0.0641,0.0663,0.0686,0.0714,0.0745,0.0768,0.0817,0.0838,0.0878,0.0889,0.0896,0.095,0.0943,0.0948,0.0937,0.0974,0.0972,0.0978,0.0896,0.0895,0.0895,0.0895,0,0,0.0569,0.0598,0.0605,0.0616,0.0653,0.0667,0.0701,0.0737,0.0766,0.0806,0.085,0.0887,0.0914,0.093,0.0946,0.098,0.1027,0.0991,0.0992,0.0983,0.1094,0.1,0.0998,0.1052,0.1053,0.1055,0.1068,0,0.0575,0.0596,0.0612,0.0641,0.0651,0.0685,0.0715,0.0753,0.079,0.0838,0.0875,0.0925,0.0925,0.0959,0.0991,0.1031,0.105,0.1022,0.1068,0.1068,0.0974,0.1004,0.106,0.1072,0.1074,0.1075,0.1076,0,0.0573,0.0586,0.0614,0.0649,0.0658,0.0684,0.0736,0.0767,0.0832,0.0866,0.0919,0.0957,0.1022,0.1018,0.1086,0.1075,0.1088,0.1102,0.1103,0.1019,0.0988,0.1035,0.1088,0.1087,0.1086,0.1085,0.1084,0,0.0555,0.0589,0.0614,0.0625,0.0667,0.0694,0.0726,0.0783,0.082,0.09,0.0941,0.1008,0.1057,0.11,0.1133,0.1129,0.1194,0.1186,0.1098,0.1091,0.1165,0.1159,0.1223,0.1223,0.1223,0.1223,0.1223,0,0.0546,0.0565,0.0611,0.0617,0.0654,0.0691,0.0741,0.0779,0.0853,0.0895,0.0965,0.1003,0.1088,0.1131,0.1152,0.1142,0.1208,0.1105,0.1096,0.1166,0.116,0.1168,0.1162,0.1223,0.1223,0.1223,0.1223,0,0.0522,0.0555,0.0575,0.0622,0.0646,0.0672,0.075,0.0775,0.0854,0.0914,0.0951,0.1029,0.1082,0.113,0.1193,0.115,0.1163,0.1135,0.1192,0.1185,0.1025,0.1019,0.1041,0.1038,0.1035,0.1033,0.1031,0,0.0511,0.0521,0.0571,0.0586,0.0612,0.0664,0.0694,0.0774,0.0803,0.0909,0.0928,0.1011,0.1051,0.1061,0.111,0.1127,0.1109,0.1088,0.1068,0.1021,0.1011,0.1009,0.1007,0.1027,0.1026,0.1026,0.1025,0,0.0479,0.0507,0.0517,0.0551,0.0583,0.0609,0.0661,0.0688,0.0773,0.0855,0.09,0.0933,0.0971,0.101,0.1024,0.1033,0.1097,0.1061,0.1066,0.1047,0.1005,0.0996,0.0997,0.1016,0.1017,0.1018,0.1019,0,0.0461,0.0454,0.0478,0.0505,0.0538,0.0544,0.0578,0.062,0.0671,0.0798,0.0806,0.0889,0.0965,0.0959,0.0977,0.0979,0.0959,0.0915,0.0928,0.0938,0.0897,0.0828,0.0781,0,0,0,0,0,0.0435,0.0423,0.0432,0.0438,0.0464,0.0497,0.0549,0.0583,0.0679,0.0692,0.0756,0.0796,0.0827,0.0864,0.0845,0.0905,0.0947,0.0873,0.0898,0.0967,0.0977,0.0937,0,0,0,0,0,0,0.0417,0.042,0.0413,0.0392,0.0394,0.0409,0.045,0.0502,0.0524,0.0631,0.0663,0.0735,0.0786,0.0845,0.0832,0.084,0.0832,0.0928,0.0924,0.0961,0.097,0.0978,0.0941,0,0,0,0,0]},{"header":{"parameterUnit":"m.s-1","parameterCategory":2,"la1":30.2991,"la2":30.254,"lo1":-89.0895,"lo2":-89.0444,"dy":0.0017,"dx":0.0017,"nx":28,"ny":28,"refTime":"2024-08-19T09:00:00:Z","depth":"4","parameterNumber":3,"parameterNumberName":"V-component_of_CURRENTS"},"data":[0,0,0,0,0,0,0,0,0,0,0,0,0,0,0,0,0,0,0,0,0,0,0,0,0,0,0,0,0,0,0,0,0,0,0,0,0,0,0,0,0,0,0,0,0,0,0,0,0,0,0,0,0,0,0,0,0,0,0.0059,0.006,0,0.0072,0.0073,0.0073,0.0071,0.0071,0.0071,0.0071,0.0064,0.0064,0.0064,0,0,0,0,0,0,0,0,0,0,0,0,0,0.0035,0.0035,0.0059,0.006,0.006,0.0072,0.0073,0.0073,0.0071,0.0071,0.0071,0.007,0.0064,0.0064,0.0064,0,0,0,0,0,0,0,0,0,0,0,0,0,0.0046,0.0035,0.0059,0.006,0.0061,0.0072,0.0073,0.0073,0.0071,0.0071,0.0071,0.007,0.0064,0.0064,0.0064,0.007,0,0,0.0064,0.0064,0,0,0,0,0,0,0,0,0.0046,0.0047,0.006,0.006,0.0061,0.007,0.0061,0.0071,0.0071,0.0067,0.0071,0.007,0.0064,0.0064,0.0068,0.007,0.007,0.0064,0.0064,0.0064,0.0064,0,0,0,0,0,0,0,0.0045,0.0047,0.0065,0.006,0.0061,0.0061,0.0062,0.0063,0.0067,0.0068,0.0068,0.0069,0.0064,0.0068,0.0067,0.007,0.0064,0.0064,0.0064,0.0064,0.008,0.0081,0,0,0,0,0,0,0.0044,0.0046,0.0064,0.0065,0.0052,0.0061,0.0063,0.0067,0.0068,0.0067,0.0069,0.0069,0.0068,0.0067,0.0067,0.0082,0.0064,0.0064,0.0064,0.008,0.008,0.0081,0,0,0,0,0,0,0.0043,0.0045,0.0064,0.0055,0.0058,0.0062,0.0067,0.0068,0.0071,0.0069,0.0068,0.0071,0.0068,0.0067,0.0071,0.0081,0.0064,0.0064,0.0079,0.008,0.008,0.0106,0,0,0,0,0,0,0.0042,0.0045,0.0048,0.0056,0.0058,0.0074,0.0067,0.0068,0.0072,0.0072,0.0071,0.007,0.0067,0.0071,0.0071,0.0081,0.0064,0.0079,0.008,0.008,0.0105,0.0107,0.011,0,0,0,0,0,0.0041,0.0051,0.0048,0.005,0.0062,0.0074,0.0076,0.0078,0.0072,0.0078,0.0076,0.007,0.0076,0.0071,0.0071,0.0081,0.0078,0.0079,0.008,0.0103,0.0107,0.011,0,0,0,0,0,0,0.0041,0.0052,0.0049,0.006,0.0066,0.0074,0.008,0.0079,0.0082,0.0079,0.0075,0.0074,0.0082,0.0077,0.0073,0.0088,0.0076,0.0077,0.0094,0.0097,0.0099,0.0104,0.0064,0,0,0,0,0,0.0042,0.0053,0.0058,0.0068,0.0071,0.0074,0.0078,0.0079,0.0083,0.0084,0.0084,0.0083,0.0086,0.0088,0.0089,0.0097,0.0088,0.0104,0.0106,0.0109,0.0113,0.0108,0.011,0.0084,0.0084,0.0084,0,0,0.0044,0.0051,0.0057,0.0068,0.0073,0.0085,0.0076,0.0085,0.0095,0.0082,0.0095,0.0092,0.009,0.0101,0.0104,0.0098,0.011,0.011,0.0112,0.0115,0.0109,0.0111,0.0114,0.0084,0.0084,0.0084,0,0,0.0056,0.006,0.0072,0.008,0.0088,0.0093,0.0095,0.0102,0.0105,0.0114,0.0109,0.0111,0.0116,0.0119,0.012,0.0137,0.0123,0.0138,0.0156,0.0151,0.0154,0.0155,0.0141,0.0141,0.014,0.014,0.014,0,0.0057,0.0075,0.0077,0.0092,0.0102,0.0097,0.0113,0.0117,0.0124,0.0131,0.0121,0.0131,0.0126,0.0141,0.0148,0.0144,0.0135,0.0145,0.0155,0.0156,0.0158,0.0143,0.0143,0.0141,0.0141,0.0141,0.0141,0,0.0079,0.0093,0.0102,0.012,0.0131,0.0145,0.015,0.0158,0.0157,0.0161,0.0171,0.0163,0.017,0.0168,0.0164,0.0175,0.0164,0.0158,0.0147,0.0162,0.0145,0.0144,0.0143,0.0143,0.0142,0.0142,0,0,0.0083,0.0112,0.0115,0.0132,0.0148,0.0162,0.0178,0.0196,0.021,0.0206,0.0224,0.0221,0.0214,0.0215,0.0205,0.0199,0.0197,0.0185,0.0184,0.0171,0.018,0.0176,0.0175,0.0194,0.0194,0.0194,0.0162,0,0.0099,0.0133,0.0144,0.0178,0.0198,0.0204,0.0224,0.0238,0.0242,0.0257,0.0244,0.0257,0.0233,0.0237,0.0227,0.0209,0.0198,0.0206,0.0168,0.0167,0.0161,0.0175,0.0195,0.0162,0.0162,0.0162,0.0162,0,0.0117,0.014,0.0176,0.0216,0.0225,0.0245,0.0278,0.0296,0.031,0.0313,0.0314,0.0304,0.03,0.0274,0.0242,0.0249,0.0218,0.0195,0.0193,0.0182,0.0162,0.0145,0.016,0.0161,0.0161,0.0161,0.0161,0,0.0124,0.0164,0.0196,0.0209,0.0249,0.027,0.0292,0.0314,0.0339,0.0351,0.0364,0.0349,0.0345,0.0309,0.0259,0.0254,0.0217,0.0203,0.0166,0.0165,0.0165,0.0164,0.0178,0.0178,0.0178,0.0178,0.0178,0,0.0141,0.0167,0.0204,0.0223,0.0269,0.029,0.0336,0.0352,0.0383,0.0415,0.0396,0.0403,0.0354,0.0325,0.0275,0.0221,0.0228,0.0173,0.0161,0.0176,0.0176,0.0164,0.0163,0.0177,0.0177,0.0177,0.0177,0,0.0145,0.0168,0.0209,0.0255,0.0275,0.0308,0.0371,0.0403,0.0424,0.0463,0.0471,0.0451,0.0412,0.0356,0.0294,0.0245,0.0192,0.0169,0.0188,0.0176,0.0136,0.0137,0.0127,0.0126,0.0126,0.0126,0.0126,0,0.015,0.017,0.023,0.0261,0.0285,0.0339,0.0378,0.0421,0.0455,0.0486,0.0503,0.048,0.0456,0.0364,0.0298,0.0208,0.0189,0.0155,0.0146,0.0144,0.0133,0.0134,0.0135,0.0125,0.0125,0.0125,0.0125,0,0.0157,0.0177,0.0214,0.0277,0.0325,0.0384,0.0441,0.0467,0.0513,0.0532,0.0533,0.0489,0.0442,0.0364,0.0298,0.0228,0.0176,0.0151,0.0151,0.0143,0.0142,0.0132,0.0133,0.0124,0.0124,0.0124,0.0124,0,0.0163,0.0185,0.0235,0.0295,0.0358,0.0416,0.0443,0.0486,0.0524,0.0554,0.0547,0.0499,0.0472,0.0374,0.031,0.0249,0.0225,0.019,0.0187,0.0188,0.0213,0.0222,0.0223,0,0,0,0,0,0.017,0.02,0.025,0.032,0.0383,0.042,0.0485,0.0506,0.054,0.0546,0.0553,0.051,0.042,0.0377,0.0315,0.0295,0.0208,0.0218,0.0166,0.0119,0.012,0.014,0,0,0,0,0,0,0.0176,0.022,0.0249,0.0335,0.0379,0.045,0.0488,0.0507,0.0514,0.0531,0.0486,0.0478,0.0392,0.0455,0.0307,0.029,0.0243,0.0183,0.0181,0.0119,0.012,0.012,0.0141,0,0,0,0,0]}]]